www.pogodaiklimat.ru

Погода и климат >> Архив погоды >> Япония >> Румои


ПОГОДА в Румои

  • Прогноз погоды в Румои
  • Монитор погоды в Румои

АРХИВ ПОГОДЫ в Румои

Время (UTC), дата Ветер
(напр.,м/с)
 
Видим.   Явления Облачность Т
(С)
Тd
(С)
f
(%)
Тe
(С)
Тes
(С)
Комфортность P
(гПа)
Po
(гПа)
Тmin
(С)
Tmax
(С)
R
(мм)
R24
(мм)
S
(см)
22 10.06 ЮВ 5 20 км н/о +14.7 +10.1 74 +13 +13 1012.6 1009.6
23 10.06 ЮВ 4 20 км н/о +17.1 +10.9 67 +17 +17 1012.6 1009.6
00 11.06 ЮВ 4 16 км н/о +19.3 +11.1 59 +20 +20 1012.2 1009.2 +10.5
01 11.06 З 3 20 км н/о +18.5 +12.7 69 +19 +19 1011.8 1008.8
02 11.06 СЗ 4 20 км н/о +18.0 +12.0 68 +18 +18 1011.5 1008.5
03 11.06 СЗ 3 20 км н/о +18.4 +12.8 70 +19 +19 1011.6 1008.6
04 11.06 СЗ 4 20 км н/о +18.4 +12.6 69 +19 +19 1011.4 1008.4
05 11.06 СЗ 4 20 км н/о +18.1 +12.6 70 +18 +18 1011.4 1008.4
06 11.06 С 5 20 км н/о +17.7 +13.2 75 +17 +17 1011.2 1008.2
07 11.06 С 6 20 км н/о +16.9 +13.1 78 +16 +16 1011.0 1008.0
08 11.06 С 5 20 км н/о +16.4 +12.8 79 +15 +15 1011.4 1008.4
09 11.06 С 3 20 км н/о +16.1 +12.9 81 +16 +16 1011.9 1008.9
10 11.06 С 2 20 км н/о +15.6 +12.2 80 +16 +16 1012.3 1009.3
11 11.06 З 1 20 км н/о +15.7 +12.6 82 +16 +16 1012.7 1009.7
12 11.06 Ю 1 20 км н/о +15.3 +12.6 84 +16 +16 1012.7 1009.7 +19.9
13 11.06 В 3 20 км н/о +14.0 +11.9 87 +13 +13 1012.4 1009.4
14 11.06 В 4 20 км н/о +13.4 +11.8 90 +12 +12 1012.3 1009.3
15 11.06 ЮВ 5 20 км н/о +13.2 +11.9 92 +11 +11 1012.1 1009.1
16 11.06 В 3 20 км н/о +13.1 +11.5 90 +12 +12 1012.0 1009.0
17 11.06 ЮВ 4 20 км н/о +12.8 +10.4 85 +11 +11 1011.8 1008.8
18 11.06 ЮВ 6 20 км н/о +12.4 +9.4 82 +10 +10 1011.3 1008.3
19 11.06 ЮВ 5 20 км н/о +12.0 +10.1 88 +9 +9 1011.4 1008.4
20 11.06 ЮВ 4 20 км н/о +12.3 +9.3 82 +10 +10 1011.6 1008.6
21 11.06 ЮВ 4 20 км н/о +12.9 +9.2 78 +11 +11 1011.4 1008.4
22 11.06 ЮВ 4 20 км н/о +14.1 +9.8 75 +13 +13 1011.7 1008.7
23 11.06 Ю 2 20 км н/о +15.5 +11.9 79 +16 +16 1011.7 1008.7
00 12.06 З 2 20 км слаб. дождь н/о +15.3 +11.5 78 +15 +15 1011.4 1008.4 +11.9 0.0
01 12.06 З 3 20 км в посл. час дождь н/о +15.7 +11.3 75 +15 +15 1011.2 1008.2
02 12.06 З 3 20 км н/о +16.9 +11.4 70 +17 +17 1011.1 1008.1
03 12.06 З 3 20 км {дождь} н/о +17.9 +11.9 68 +18 +18 1011.2 1008.2
04 12.06 СЗ 4 20 км н/о +17.1 +12.0 72 +17 +17 1010.8 1007.8
05 12.06 СЗ 2 20 км н/о +16.7 +12.1 74 +17 +17 1010.5 1007.5
06 12.06 З 2 20 км {дождь} н/о +17.0 +12.1 73 +17 +17 1009.8 1006.8 0.0
07 12.06 З 3 20 км н/о +17.6 +12.7 73 +18 +18 1009.8 1006.8
08 12.06 СЗ 4 20 км н/о +16.2 +12.6 79 +16 +16 1009.7 1006.7
09 12.06 СЗ 6 19 км н/о +15.3 +13.2 87 +14 +14 1009.9 1006.9
10 12.06 СЗ 5 20 км н/о +14.9 +12.4 85 +13 +13 1010.0 1007.0
11 12.06 СЗ 4 20 км слаб. дождь н/о +14.7 +12.6 87 +13 +13 1010.2 1007.2
12 12.06 СЗ 2 20 км слаб. дождь н/о +14.4 +12.6 89 +14 +14 1010.2 1007.2 +18.3 0.0
13 12.06 СЗ 3 20 км в посл. час дождь н/о +14.4 +12.4 88 +14 +14 1010.1 1007.1
14 12.06 СЗ 3 20 км н/о +14.4 +12.3 87 +14 +14 1010.1 1007.1
15 12.06 З 4 20 км {дождь} н/о +14.6 +10.4 76 +14 +14 1009.7 1006.7
16 12.06 З 3 20 км н/о +14.3 +11.5 83 +13 +13 1009.6 1006.6
17 12.06 Ю 2 20 км н/о +14.1 +11.4 84 +14 +14 1009.3 1006.3
18 12.06 З 4 20 км {дождь} н/о +14.4 +10.8 79 +13 +13 1009.5 1006.5 0.0
19 12.06 З 3 20 км н/о +14.5 +11.3 81 +14 +14 1009.4 1006.4
20 12.06 З 4 20 км н/о +14.1 +11.8 86 +13 +13 1010.0 1007.0
21 12.06 З 4 20 км в посл. час дождь н/о +13.6 +12.3 92 +12 +12 1010.1 1007.1
22 12.06 З 4 20 км н/о +13.6 +12.7 94 +12 +12 1010.6 1007.6
23 12.06 З 3 11 км слаб. дождь н/о +13.9 +13.6 98 +13 +13 1011.0 1008.0
00 13.06 З 4 20 км в посл. час дождь н/о +14.7 +12.4 86 +14 +14 1011.1 1008.1 +13.2 0.0
01 13.06 З 5 20 км н/о +15.4 +12.5 83 +14 +14 1011.4 1008.4
02 13.06 З 5 20 км н/о +15.9 +11.7 76 +15 +15 1011.0 1008.0
03 13.06 З 3 20 км н/о +16.6 +11.8 73 +16 +16 1010.7 1007.7
04 13.06 З 6 20 км н/о +15.6 +11.2 75 +14 +14 1011.0 1008.0
05 13.06 З 5 20 км н/о +16.7 +11.8 73 +16 +16 1011.2 1008.2
06 13.06 З 4 20 км н/о +15.1 +11.1 77 +14 +14 1011.2 1008.2
07 13.06 З 6 20 км н/о +15.7 +11.3 75 +14 +14 1011.3 1008.3
08 13.06 З 4 20 км н/о +14.9 +11.5 80 +14 +14 1011.2 1008.2
09 13.06 З 5 20 км н/о +14.7 +11.7 82 +13 +13 1012.0 1009.0
10 13.06 З 3 20 км н/о +14.8 +12.0 83 +14 +14 1012.3 1009.3
11 13.06 З 3 20 км н/о +14.9 +11.9 82 +14 +14 1012.6 1009.6
12 13.06 З 3 20 км н/о +15.0 +12.9 87 +14 +14 1012.6 1009.6 +17.1
13 13.06 З 3 20 км н/о +15.0 +13.2 89 +14 +14 1012.6 1009.6
14 13.06 В 3 20 км н/о +14.3 +11.8 85 +14 +14 1012.1 1009.1
15 13.06 ЮВ 4 20 км н/о +13.9 +12.0 88 +12 +12 1012.0 1009.0
16 13.06 В 4 20 км н/о +13.5 +12.1 91 +12 +12 1011.9 1008.9
17 13.06 В 3 20 км н/о +13.4 +12.1 92 +12 +12 1011.3 1008.3
18 13.06 ЮВ 3 20 км н/о +13.2 +11.9 92 +12 +12 1011.1 1008.1
19 13.06 ЮВ 3 19 км н/о +13.5 +11.7 89 +12 +12 1011.5 1008.5
20 13.06 ЮВ 5 20 км н/о +13.4 +11.5 88 +11 +11 1011.1 1008.1
21 13.06 ЮВ 5 20 км н/о +15.7 +11.1 74 +15 +15 1010.6 1007.6
22 13.06 ЮВ 4 20 км н/о +17.9 +11.5 66 +18 +18 1010.3 1007.3
23 13.06 В 3 20 км н/о +19.7 +11.2 58 +21 +21 комфорт 1010.8 1007.8
00 14.06 СЗ 3 20 км н/о +20.3 +11.3 56 +22 +22 комфорт 1010.0 1007.1 +13.2
01 14.06 СЗ 4 20 км н/о +19.1 +13.1 68 +20 +20 1010.2 1007.2
02 14.06 СЗ 4 20 км н/о +20.0 +12.5 62 +22 +22 комфорт 1010.1 1007.1
03 14.06 СЗ 3 17 км н/о +20.3 +14.7 70 +23 +23 комфорт 1009.4 1006.5
04 14.06 СЗ 2 20 км н/о +20.8 +14.0 65 +24 +24 комфорт 1008.8 1005.9
05 14.06 СЗ 3 20 км н/о +20.7 +14.8 69 +24 +24 комфорт 1008.6 1005.7
06 14.06 СЗ 5 15 км н/о +19.1 +14.6 75 +20 +20 1009.2 1006.2
07 14.06 С 3 19 км н/о +19.1 +14.4 74 +21 +21 комфорт 1009.0 1006.0
08 14.06 СЗ 2 16 км н/о +18.8 +14.3 75 +20 +20 1009.5 1006.5
09 14.06 СЗ 2 20 км н/о +18.1 +13.6 75 +19 +19 1009.8 1006.8
10 14.06 СВ 2 20 км н/о +18.3 +13.6 74 +19 +19 1010.0 1007.0
11 14.06 В 2 20 км н/о +17.9 +13.2 74 +19 +19 1010.2 1007.2
12 14.06 В 3 20 км н/о +17.0 +13.3 79 +17 +17 1010.1 1007.1 +22.1
13 14.06 ЮВ 6 20 км н/о +16.6 +12.6 77 +15 +15 1009.7 1006.7
14 14.06 ЮВ 7 20 км н/о +16.0 +12.2 78 +14 +14 1009.6 1006.6
15 14.06 ЮВ 8 20 км н/о +15.4 +12.5 83 +13 +13 1009.5 1006.5
16 14.06 ЮВ 8 20 км н/о +15.0 +12.9 87 +13 +13 1009.4 1006.4
17 14.06 ЮВ 8 20 км н/о +14.6 +12.8 89 +12 +12 1009.0 1006.0
18 14.06 В 7 19 км н/о +14.7 +13.3 91 +13 +13 1009.1 1006.1
19 14.06 ЮВ 8 15 км н/о +14.7 +13.4 92 +12 +12 1009.1 1006.1
20 14.06 ЮВ 8 12 км н/о +15.0 +13.6 91 +13 +13 1009.1 1006.1
21 14.06 ЮВ 8 13 км н/о +15.5 +13.9 90 +14 +14 1008.9 1005.9
22 14.06 ЮВ 8 17 км н/о +16.4 +13.9 85 +15 +15 1008.8 1005.8
23 14.06 ЮВ 7 20 км н/о +17.9 +14.2 79 +17 +17 1008.8 1005.8
00 15.06 ЮВ 5 20 км н/о +20.3 +15.1 72 +23 +23 комфорт 1008.6 1005.7 +14.5
01 15.06 В 5 20 км н/о +23.6 +14.9 58 +26 +26 жарко 1008.5 1005.6
02 15.06 Ю 7 20 км н/о +24.4 +11.7 45 +26 +26 жарко 1008.2 1005.3
03 15.06 Ю 5 20 км н/о +25.6 +12.8 45 +27 +27 жарко 1007.8 1004.9
04 15.06 ЮВ 6 20 км н/о +25.6 +12.5 44 +27 +27 жарко 1007.5 1004.6
05 15.06 ЮВ 5 20 км н/о +25.2 +12.8 46 +27 +27 жарко 1007.4 1004.5
06 15.06 С 3 20 км н/о +20.9 +15.0 69 +24 +24 комфорт 1007.2 1004.3
07 15.06 СЗ 3 19 км н/о +19.9 +16.0 78 +23 +23 комфорт 1007.2 1004.3
08 15.06 СЗ 2 20 км н/о +19.1 +15.0 77 +21 +21 комфорт 1007.3 1004.3
09 15.06 ЮЗ 2 20 км н/о +21.6 +13.3 59 +24 +24 комфорт 1007.2 1004.3
10 15.06 З 2 20 км н/о +19.8 +14.0 69 +22 +22 комфорт 1007.5 1004.6
11 15.06 Ю 2 14 км слаб. дождь н/о +18.0 +16.0 88 +19 +19 1007.9 1004.9
12 15.06 ЮВ 4 20 км слаб. дождь н/о +18.1 +13.6 75 +18 +18 1007.4 1004.4 +26.1 0.0
13 15.06 В 6 20 км в посл. час дождь н/о +17.8 +12.7 72 +17 +17 1006.9 1003.9
14 15.06 ЮВ 5 20 км слаб. дождь н/о +17.3 +12.6 74 +17 +17 1006.5 1003.5
15 15.06 В 5 20 км слаб. дождь н/о +16.6 +13.0 79 +16 +16 1005.5 1002.5
16 15.06 ЮВ 4 20 км слаб. дождь н/о +16.1 +12.7 80 +15 +15 1004.6 1001.6
17 15.06 В 4 20 км слаб. дождь н/о +15.4 +12.9 85 +15 +15 1003.6 1000.6
18 15.06 В 2 20 км слаб. дождь н/о +14.9 +12.8 87 +15 +15 1002.5 999.5 0.0
19 15.06 В 2 20 км в посл. час дождь н/о +14.7 +13.1 90 +14 +14 1001.1 998.1
20 15.06 В 2 20 км слаб. дождь н/о +14.6 +13.2 91 +14 +14 1000.4 997.4
21 15.06 В 4 15 км слаб. дождь н/о +14.7 +13.3 91 +13 +13 999.9 996.9
22 15.06 В 4 14 км слаб. дождь н/о +14.6 +13.3 92 +13 +13 998.7 995.7
23 15.06 В 3 20 км слаб. дождь н/о +15.3 +13.2 87 +15 +15 997.2 994.2
00 16.06 СВ 3 20 км слаб. дождь н/о +15.6 +12.9 84 +15 +15 996.0 993.0 +14.3 3
01 16.06 СВ 3 20 км слаб. дождь н/о +17.0 +14.1 83 +17 +17 995.3 992.4
02 16.06 В 4 20 км слаб. дождь н/о +17.1 +12.6 75 +17 +17 994.6 991.7
03 16.06 СВ 3 10 км слаб. дождь н/о +15.9 +13.0 83 +15 +15 993.2 990.3
04 16.06 СВ 2 20 км слаб. дождь н/о +16.6 +14.1 85 +17 +17 992.3 989.4
05 16.06 СВ 5 20 км в посл. час дождь н/о +18.7 +12.9 69 +19 +19 991.4 988.5
06 16.06 СВ 5 20 км {дождь} н/о +18.3 +11.2 63 +18 +18 991.4 988.5 2
07 16.06 СВ 6 20 км н/о +16.8 +10.4 66 +16 +16 991.8 988.9
08 16.06 СВ 4 20 км н/о +15.9 +10.0 68 +15 +15 992.4 989.5
09 16.06 СВ 6 20 км н/о +15.3 +9.4 68 +14 +14 992.2 989.2
10 16.06 С 7 20 км н/о +14.2 +9.0 71 +12 +12 992.4 989.4
11 16.06 С 5 20 км н/о +13.6 +8.7 72 +12 +12 993.3 990.3
12 16.06 СВ 7 20 км н/о +12.8 +7.7 71 +10 +10 994.2 991.2 +19.1 2
13 16.06 СВ 3 20 км слаб. дождь н/о +11.5 +8.9 84 +10 +10 994.5 991.5
14 16.06 С 4 14 км слаб. дождь н/о +12.0 +8.9 81 +10 +10 994.7 991.7
15 16.06 С 9 9000 м слаб. дождь н/о +11.3 +10.4 94 +7 +7 995.2 992.2
16 16.06 С 10 11 км слаб. дождь н/о +10.6 +8.7 88 +6 +6 995.8 992.8
17 16.06 С 10 12 км в посл. час дождь н/о +10.2 +8.3 88 +6 +6 996.6 993.6
18 16.06 С 8 12 км {дождь} н/о +9.8 +8.2 90 +6 +6 997.6 994.6 0.0
19 16.06 С 12 20 км слаб. дождь н/о +9.5 +7.3 86 +4 +4 998.7 995.7
20 16.06 С 6 9000 м в посл. час дождь н/о +9.5 +8.1 91 +6 +6 999.7 996.7
21 16.06 С 8 17 км в посл. час дождь н/о +10.1 +8.4 89 +6 +6 1000.5 997.5
22 16.06 С 10 13 км н/о +10.0 +8.3 89 +5 +5 1001.3 998.3
23 16.06 С 7 11 км н/о +11.2 +8.8 85 +8 +8 1002.2 999.2
00 17.06 С 6 10 км {дождь} н/о +10.9 +8.3 84 +8 +8 1002.4 999.4 +9.4 0.0
01 17.06 С 6 11 км н/о +11.4 +8.8 84 +9 +9 1003.1 1000.1
02 17.06 С 6 15 км н/о +12.5 +7.8 73 +10 +10 1003.7 1000.7
03 17.06 СЗ 5 18 км н/о +12.0 +8.1 77 +10 +10 1004.4 1001.4
04 17.06 СЗ 7 15 км н/о +12.1 +8.4 78 +9 +9 1005.1 1002.1
05 17.06 СЗ 9 13 км слаб. дождь н/о +11.6 +8.5 81 +8 +8 1005.8 1002.8
06 17.06 З 8 17 км в посл. час дождь н/о +12.5 +7.8 73 +9 +9 1006.4 1003.4 0.0
07 17.06 З 7 16 км н/о +12.5 +7.4 71 +10 +10 1007.1 1004.1
08 17.06 СЗ 6 16 км н/о +12.3 +7.0 70 +10 +10 1007.5 1004.5
09 17.06 З 5 18 км н/о +11.8 +6.9 72 +10 +10 1008.1 1005.1
10 17.06 З 5 18 км н/о +11.9 +7.6 75 +9 +9 1008.6 1005.6
11 17.06 З 5 20 км н/о +11.6 +7.1 74 +9 +9 1009.6 1006.6
12 17.06 З 4 18 км н/о +11.3 +7.0 75 +9 +9 1010.4 1007.3 +13.8 0.0
13 17.06 З 5 19 км н/о +11.6 +7.1 74 +9 +9 1010.9 1007.8
14 17.06 СЗ 6 20 км н/о +11.7 +7.4 75 +9 +9 1011.2 1008.1
15 17.06 СЗ 5 19 км н/о +11.5 +7.0 74 +9 +9 1011.6 1008.5
16 17.06 СЗ 3 17 км н/о +11.5 +7.0 74 +10 +10 1011.4 1008.3
17 17.06 ЮЗ 1 20 км н/о +11.5 +7.0 74 +11 +11 1010.9 1007.8
18 17.06 ЮВ 4 20 км н/о +9.6 +7.6 87 +7 +7 1010.5 1007.4
19 17.06 ЮВ 5 20 км в посл. час дождь н/о +9.4 +7.2 86 +6 +6 1011.1 1008.0
20 17.06 В 5 20 км н/о +9.4 +6.8 84 +6 +6 1011.0 1007.9
21 17.06 ЮВ 6 20 км {дождь} н/о +10.1 +7.0 81 +7 +7 1010.8 1007.7
22 17.06 ЮВ 7 20 км н/о +11.6 +7.5 76 +9 +9 1010.4 1007.4

 

Местоположение метеостанции Румои (Япония): широта 43.95 долгота 141.63 высота над уровнем моря 28 м.

В архиве по умолчанию представлена погода в Румои за последнюю неделю. Архивные данные за месяц целиком и за предыдущие месяцы, начиная с января 2011 года, Вы можете получить, выбрав интересующий диапазон дат из раскрывающегося списка и нажав кнопку "Ввод!".


*Определитесь, кто Вы:
робот инопланетянин человек

Внимание! Время в таблицах - всемирное. Для получения местного времени необходимо прибавить поправку, которая равна 9 ч.

Смотрите также архив погоды в соседних городах и на ближайших метеорологических станциях:

Погода в Хаборо (Япония) (47 км)
Погода в Асахикаве (Япония) (62 км)
Погода в Ивамидзаве (Япония) (82 км)
Погода в Отару (Япония) (99 км)
Погода в Саппоро (Япония) (101 км)
Погода в Омурайсу (Япония) (127 км)
Погода в Китами Сачи (Япония) (133 км)
Погода в Куттяне (Япония) (137 км)
Погода в Момбецу (Япония) (144 км)
Погода в Томакомае (Япония) (148 км)

Пояснения к столбцам:

Ветер - указаны скорость ветра в м/с - средняя за 10 мин, порывы в срок и между сроками (в фигурных скобках) и направление, откуда дует ветер: С - северный, СВ - северо-восточный, В - восточный, ЮВ - юго-восточный, Ю - южный, ЮЗ - юго-западный, З - западный, СЗ - северо-западный.
Видимость - горизонтальная дальность видимости в метрах или километрах. При видимости от 1 до 10 км при отсутствии осадков обычно наблюдается дымка, при ухудшении видимости до 1 км и менее - туман. В сухую погоду видимость может ухудшаться дымом, пылью или мглою.
Явления - указаны атмосферные явления, наблюдавшиеся в срок или в последний час перед сроком; фигурными скобками обозначены явления, наблюдавшиеся между сроками (за 1-3 часа до срока); квадратными скобками обозначены град или гололедные отложения с указанием их диаметра в мм.
Облачность - указаны через наклонную черту общая и нижняя облачность в баллах и высота нижней границы облаков в метрах; квадратными скобками обозначены формы облаков: Ci - перистые, Cs - перисто-слоистые, Cc - перисто-кучевые, Ac - высококучевые, As - высокослоистые, Sc - слоисто-кучевые, Ns - слоисто-дождевые, Cu - кучевые, Cb - кучево-дождевые. Подробнее классификацию облаков см. в Атласе облаков (PDF).
T - Температура воздуха - температура, измеренная на высоте 2 м над землей.
Td - Температура точки росы - температура, при понижении до которой содержащийся в воздухе водяной пар достигнет насыщения.
f - Относительная влажность воздуха - влажноcть воздуха, измеренная на высоте 2 м над землей.
Te - Эффективная температура - температура, которую ощущает одетый по сезону человек в тени. Характеристика душности погоды. При расчете учитывается влияние влажности воздуха и скорости ветра на теплоощущения человека.
Tes - Эффективная температура на солнце - температура, которую ощущает человек, с поправкой на солнечный нагрев. Характеристика знойности погоды. Зависит от высоты солнца над горизонтом, облачности и скорости ветра. Ночью, в пасмурную погоду, а также при ветре 12 м/с и более поправка равна нулю.
P - Атмосферное давление - приведенное к уровню моря атмосферное давление.
Po - Атмосферное давление - измеренное на уровне метеостанции атмосферное давление.
Tmin - Минимальная температура - минимум температуры воздуха на высоте 2 м над землей.
Tmax - Максимальная температура - максимум температуры воздуха на высоте 2 м над землей.
R - Количество осадков - Количество выпавших осадков за период времени, мм. При наведении курсора мыши на число - период времени, за который выпало указанное количество осадков.
R24 - Количество осадков - Количество выпавших осадков за 24 часа, мм.
S - Снежный покров - Высота снежного покрова, см. При наведении курсора мыши на число - состояние снежного покрова и степень покрытия местности в баллах.